GFSSE_700_rhum_168.txt.gz
RH
43 42 51 57 65 62 55 48 43 44 44 45 45 42 37 32 31 36 38 43 56 76 68 61 76 56 14 14 19 29 31 31 33 25 9 13 10 9 9 11 15 17 17
33 38 35 43 62 63 65 62 50 46 43 45 47 48 45 41 37 34 38 39 55 70 79 76 58 36 17 13 13 21 36 36 37 30 14 11 11 9 9 12 16 17 17
21 28 34 41 47 53 58 65 60 56 51 47 48 50 49 48 51 50 44 38 40 68 75 81 77 57 18 13 12 12 20 38 41 36 23 8 12 10 8 12 17 18 19
23 20 25 32 58 56 53 63 69 62 62 55 54 53 52 53 56 59 58 50 38 48 69 72 70 66 34 16 13 11 12 19 31 38 29 11 11 11 8 10 16 18 20
27 24 22 23 33 51 54 55 66 67 63 66 61 57 54 55 56 61 61 59 50 40 43 54 63 59 69 26 15 12 10 13 23 31 32 17 10 12 9 9 13 17 20
20 21 25 26 25 26 39 53 62 64 63 68 69 60 59 59 61 63 66 61 58 53 47 45 49 52 58 53 26 15 12 11 16 28 31 24 10 12 11 9 12 17 20
15 14 14 16 18 21 45 75 67 65 69 69 74 71 65 62 66 69 67 66 67 58 60 58 47 46 48 58 42 28 16 12 13 17 25 28 14 12 12 10 14 17 21
17 17 17 16 15 14 18 45 78 76 69 74 77 76 80 76 69 67 69 68 62 65 64 62 61 50 48 50 61 45 32 19 12 12 12 18 20 12 12 12 15 19 23
16 16 15 14 14 15 13 16 25 49 45 49 76 77 80 78 76 73 73 74 73 68 69 68 67 59 52 50 52 64 53 37 22 14 10 10 9 11 13 12 14 18 24
17 16 15 14 14 14 14 14 17 21 24 49 60 69 65 73 79 74 73 79 78 77 71 66 69 72 62 55 53 55 66 57 43 27 16 10 10 10 12 13 14 16 21
18 17 16 16 15 15 15 16 16 18 15 17 36 45 60 70 81 87 85 86 81 85 85 77 70 70 74 66 62 58 58 65 59 48 32 18 11 10 12 14 14 15 18
21 20 19 18 17 16 15 14 14 14 15 16 17 19 33 54 69 75 70 72 74 76 79 84 77 74 75 75 73 70 62 64 67 61 51 35 19 11 11 13 15 16 18
23 23 24 24 25 24 24 23 22 21 19 17 15 15 19 20 20 40 51 55 55 63 69 73 83 82 80 79 77 79 75 68 66 66 64 54 39 22 12 12 14 17 18
10 10 10 10 10 11 12 15 18 20 21 22 23 23 22 19 18 21 23 24 26 38 53 68 69 81 86 83 80 79 84 82 74 70 67 68 57 43 26 14 12 14 17
7 7 7 7 7 7 7 7 7 7 7 7 8 9 10 12 16 19 21 21 20 21 23 25 25 53 78 85 82 82 84 90 85 80 76 71 72 60 48 31 17 13 14
7 7 8 8 8 7 8 8 8 7 7 7 7 7 7 6 6 6 6 8 10 16 19 20 21 24 28 59 78 80 78 83 91 87 83 82 78 75 62 54 39 22 14
8 8 8 8 8 8 8 9 9 10 10 10 10 10 9 8 8 7 7 7 7 7 7 8 10 16 22 24 46 71 85 83 85 88 85 89 86 83 78 67 60 47 28
9 9 9 9 9 10 10 11 11 11 11 11 11 10 10 9 9 9 9 8 8 7 7 7 8 9 11 14 18 26 30 68 88 87 90 87 83 88 86 80 75 66 51
10 10 11 11 12 12 12 12 12 12 11 11 11 11 11 11 11 9 8 8 7 8 8 7 7 7 8 10 12 15 34 53 52 81 89 90 83 90 92 91 90 84 70
11 12 12 12 13 13 13 12 12 13 16 18 20 22 23 25 26 26 26 22 17 11 9 9 9 8 8 8 10 13 13 14 19 25 39 80 80 80 78 99 97 94 87
13 14 14 14 14 13 15 20 29 33 34 32 30 30 30 31 31 28 29 30 31 31 29 24 17 12 12 12 10 9 8 10 14 21 28 34 75 67 86 86 97 89 91
15 15 17 16 20 25 30 33 36 36 30 27 27 32 38 37 31 25 20 26 32 34 34 34 36 34 27 24 19 18 13 10 9 9 13 18 31 71 94 100 100 97 94
18 20 25 34 40 42 43 42 36 26 19 19 21 10 12 25 20 25 38 37 19 32 37 40 40 41 44 45 42 37 31 23 23 16 10 10 15 24 45 80 98 99 95
23 32 42 46 33 36 45 39 24 11 11 17 16 27 35 38 43 34 34 41 45 45 46 47 48 46 45 49 56 55 54 50 44 36 30 23 15 14 17 28 54 91 99
46 48 50 44 20 20 20 19 10 7 16 13 26 28 32 18 16 20 14 9 10 12 16 30 56 59 57 52 55 59 60 63 66 62 49 41 40 38 28 38 19 34 66
48 44 44 36 15 10 10 8 5 7 7 10 24 30 33 28 28 23 21 13 24 38 35 33 45 60 63 55 47 41 38 40 47 58 64 65 66 56 56 53 40 22 27

GFSSE_700_rhum_174.txt.gz
RH
30 38 29 42 53 60 61 57 47 40 37 39 42 44 44 42 42 40 37 34 54 71 76 75 67 46 18 13 11 12 25 30 29 31 13 11 10 8 8 10 14 15 15
18 23 22 24 37 61 63 60 60 54 46 42 42 45 45 45 46 47 47 40 36 64 71 78 69 58 43 19 12 10 11 23 31 29 22 9 12 9 8 9 12 15 16
19 18 18 22 40 49 59 55 60 63 63 56 50 45 46 46 47 49 51 52 44 39 52 67 68 56 60 45 20 12 9 10 17 29 26 14 11 11 9 9 11 15 16
18 16 19 19 23 27 49 61 62 62 66 67 62 59 52 49 48 48 53 54 53 47 40 39 48 56 48 56 41 22 13 10 11 17 23 22 10 12 10 9 11 13 17
15 16 20 21 21 20 21 23 34 54 60 67 65 64 66 59 57 55 53 54 56 55 53 49 45 42 44 44 53 39 27 17 11 12 18 25 21 10 11 10 10 13 18
14 13 14 16 18 19 18 18 22 34 54 69 71 69 66 67 64 62 66 67 59 56 57 55 54 55 48 44 45 54 44 34 24 13 9 14 20 16 10 11 10 12 16
18 17 16 16 16 16 15 14 16 23 37 80 70 72 76 70 68 70 69 70 70 67 62 59 59 59 57 53 47 46 56 52 42 32 20 10 9 16 15 11 11 12 16
18 18 17 16 16 15 16 17 16 17 27 47 66 79 72 72 76 78 76 74 72 69 66 69 69 69 62 63 56 51 48 52 58 51 40 30 13 8 8 12 11 11 13
18 18 18 17 17 16 15 14 14 14 17 17 24 29 63 58 64 74 74 73 73 76 77 76 73 72 75 63 64 63 55 51 50 56 55 47 34 20 9 8 8 11 13
20 20 20 18 18 17 17 16 16 16 16 15 14 16 32 32 23 44 59 68 75 86 86 80 75 76 78 77 72 63 66 63 58 55 54 55 53 42 27 11 8 9 12
22 22 22 22 21 20 19 18 18 16 16 15 14 14 15 17 16 16 18 24 54 80 86 83 80 78 73 70 78 76 68 64 67 66 61 58 60 57 47 33 14 9 10
24 24 26 25 24 24 24 24 24 23 23 23 22 22 21 21 20 17 17 16 15 24 41 50 64 69 76 73 70 70 67 70 67 68 72 68 64 63 60 52 41 20 11
25 26 25 20 14 13 13 12 10 9 9 9 10 10 11 12 16 18 20 23 22 19 17 17 21 25 30 30 38 54 65 70 69 72 66 65 72 71 67 63 57 46 30
18 18 15 12 9 8 7 7 6 6 6 6 6 6 6 6 6 6 6 6 6 7 10 17 20 23 33 49 66 61 65 64 73 74 76 71 64 80 77 70 67 63 51
10 10 9 9 8 7 7 7 7 7 7 7 7 7 7 7 7 8 7 7 7 7 7 7 6 6 11 18 32 68 54 70 72 74 76 84 79 70 86 80 74 70 68
7 8 8 8 7 7 7 8 8 8 8 8 9 9 10 10 10 10 10 10 10 10 10 9 8 8 8 7 8 12 24 66 57 78 76 85 79 76 77 91 85 81 76
8 8 8 8 7 8 8 8 8 9 10 10 10 11 11 11 11 11 11 11 11 11 11 10 10 9 9 9 9 8 9 12 32 55 79 78 75 71 65 80 92 90 87
10 9 9 10 10 9 9 9 9 10 11 12 12 12 12 11 11 10 10 12 13 14 14 15 15 14 13 11 10 9 9 8 9 13 25 50 66 65 73 75 84 96 96
15 13 12 12 12 11 10 10 11 12 12 13 13 12 11 12 15 18 22 26 27 28 29 28 28 29 30 29 27 20 14 11 9 8 9 16 39 44 56 76 64 79 85
9 17 16 14 13 13 12 12 13 14 14 14 14 16 20 24 27 26 27 24 20 20 24 33 30 30 26 22 28 31 33 32 24 15 10 9 9 14 33 51 63 71 73
30 17 24 18 16 14 14 15 16 17 19 22 27 30 30 27 24 22 14 23 27 28 28 32 31 28 30 33 26 23 27 35 37 38 34 22 16 12 11 15 64 70 71
35 30 25 18 16 18 21 22 24 30 34 37 37 34 24 20 18 16 23 28 26 30 31 27 24 20 16 19 42 43 34 30 33 39 43 45 42 35 25 16 13 13 20
39 30 25 20 21 28 33 40 38 31 38 37 29 18 11 14 15 18 24 14 26 18 23 31 28 24 19 17 20 40 48 52 48 45 46 49 49 48 46 43 34 30 54
60 58 65 68 49 45 47 46 25 17 17 16 12 7 10 13 11 21 21 16 23 25 14 33 31 23 24 28 29 29 34 49 56 47 53 58 59 59 62 62 58 65 75
51 48 53 49 48 47 46 42 21 12 11 9 6 6 8 6 19 16 18 16 11 10 9 26 35 29 24 31 43 44 41 48 56 54 48 40 47 54 64 73 80 77 65
26 34 38 38 34 29 25 22 16 14 11 9 6 5 5 6 13 13 11 11 11 10 9 12 36 36 33 28 29 39 50 56 59 60 59 58 56 52 52 46 41 45 56

GFSSE_700_rhum_177.txt.gz
RH
26 30 27 31 54 59 58 56 53 44 36 34 38 41 41 40 41 43 42 36 47 66 73 74 61 56 40 18 12 10 12 24 23 28 22 10 11 9 8 10 11 14 16
16 16 22 22 22 38 56 57 60 60 56 48 43 41 42 43 43 42 46 47 38 49 68 69 68 52 53 40 21 12 9 10 19 26 27 12 11 10 8 9 11 14 14
16 17 19 19 21 25 48 64 57 58 63 64 60 55 47 45 44 44 44 48 51 44 39 50 50 51 44 50 39 25 14 9 9 13 25 25 10 12 9 9 10 12 14
14 15 17 20 19 22 22 29 40 53 58 64 67 60 62 57 51 49 49 49 50 50 49 48 43 41 42 41 49 41 30 21 12 9 13 22 19 9 12 10 9 12 14
15 14 14 14 15 16 18 20 22 22 32 54 66 68 64 66 63 59 59 58 56 57 55 57 53 52 47 42 41 50 46 37 28 18 10 11 18 16 10 11 10 11 13
16 16 16 16 16 15 15 14 16 17 20 29 54 69 72 69 66 69 68 66 66 66 58 54 55 57 58 56 49 44 48 52 46 35 26 12 11 18 16 9 10 11 13
17 18 17 17 16 16 16 16 16 16 17 24 42 60 71 72 70 72 72 75 69 66 65 64 64 59 62 61 60 54 49 47 52 54 44 34 19 9 9 15 10 10 11
17 17 17 17 17 17 16 16 15 14 15 17 20 28 42 66 65 66 79 82 82 78 74 73 71 69 70 69 61 63 62 55 52 50 55 53 41 30 15 8 9 10 10
18 18 19 18 18 18 18 17 16 16 15 14 15 15 16 18 40 32 40 55 66 69 76 76 76 73 74 72 74 74 68 65 64 59 55 53 57 51 41 24 10 8 10
18 20 20 21 21 21 21 19 18 18 17 16 15 15 15 15 18 18 14 18 54 48 56 68 81 80 77 79 77 77 76 74 70 69 68 65 59 59 57 48 34 14 9
21 21 23 22 23 24 24 23 23 22 21 20 19 18 17 16 15 15 15 15 14 17 24 45 68 72 73 80 82 80 74 68 76 73 70 72 71 67 63 60 54 40 19
23 24 26 26 26 26 22 19 21 22 21 21 21 22 22 22 23 22 22 22 20 18 16 16 24 57 44 35 58 59 59 54 64 66 72 72 69 74 75 70 64 58 45
17 17 18 20 23 21 15 11 9 8 7 7 7 6 6 6 6 7 7 8 11 15 20 22 21 20 19 20 20 28 30 36 50 59 72 75 75 72 80 77 75 70 64
14 16 13 13 14 12 11 9 7 7 6 7 7 7 6 6 6 6 6 6 6 6 6 6 8 11 14 18 28 86 72 59 66 66 69 73 81 78 79 78 78 82 76
7 8 8 10 11 10 9 8 7 7 8 8 8 8 8 8 8 8 9 9 9 9 9 9 8 8 7 7 8 10 20 59 72 78 70 85 79 76 75 84 87 86 84
10 9 8 8 8 9 9 8 8 8 8 8 9 9 9 9 10 10 11 11 11 11 11 11 11 11 10 10 10 9 8 10 16 58 79 78 70 78 78 77 74 92 94
11 14 13 11 9 9 9 9 10 10 10 9 9 10 10 11 11 11 11 11 11 12 12 12 12 12 12 12 11 10 10 9 9 28 45 63 72 80 78 73 80 74 76
18 11 13 16 14 12 13 13 12 11 10 11 12 12 12 12 12 12 12 13 16 19 21 24 24 24 23 22 21 21 18 14 11 10 10 17 49 66 69 78 75 76 80
16 20 22 20 20 18 17 14 13 12 12 13 14 14 14 14 13 15 21 25 26 24 19 20 21 22 22 27 29 28 27 28 29 25 15 11 10 15 40 54 67 76 73
23 35 39 34 31 31 20 17 14 14 15 17 17 16 16 17 20 26 26 24 16 24 26 26 27 27 27 29 29 27 26 24 20 28 34 32 24 14 13 15 42 58 68
17 29 44 43 41 36 26 19 16 19 21 22 24 26 27 29 29 26 23 16 24 16 23 16 17 29 31 28 25 23 21 23 35 33 26 34 39 37 31 19 14 14 26
34 37 45 46 42 31 26 29 36 32 36 33 36 40 38 33 24 18 16 17 20 17 22 20 10 23 31 28 25 23 21 19 20 34 39 34 36 41 39 37 29 18 13
42 41 35 35 41 50 62 59 56 49 31 26 26 23 19 13 10 14 15 20 21 18 12 10 9 30 31 26 25 27 25 23 18 20 36 47 46 46 49 50 47 44 38
40 43 50 54 51 49 50 52 49 38 22 14 14 12 8 6 9 11 12 18 18 16 12 10 9 27 31 30 28 28 31 35 34 22 24 40 54 57 58 59 57 58 56
26 23 29 38 38 36 32 31 30 23 17 14 12 10 6 6 6 6 13 17 12 10 12 12 11 12 19 22 30 33 30 34 46 46 29 39 46 49 48 50 54 55 59
30 30 29 25 24 29 29 24 19 15 12 10 9 9 6 6 6 6 7 9 10 11 12 13 13 12 11 11 16 29 38 37 37 38 36 29 26 36 49 53 52 49 47

GFSSE_700_rhum_180.txt.gz
RH
18 26 26 25 45 57 59 57 55 51 43 38 37 39 38 39 42 44 45 40 37 60 72 74 63 47 51 37 18 11 9 10 19 18 20 11 11 9 9 9 12 20 44
17 19 20 20 20 23 39 58 57 61 61 58 52 46 43 43 43 44 46 47 44 37 44 64 62 50 42 50 40 22 14 9 10 18 21 19 9 11 9 9 11 13 15
17 19 19 20 21 33 29 49 65 62 60 66 66 60 58 51 46 47 47 50 51 49 45 40 41 48 45 42 49 40 30 21 12 11 15 20 15 9 11 9 10 12 14
16 16 17 18 20 29 22 21 24 33 44 58 66 70 64 63 61 54 52 51 52 54 54 58 52 50 45 42 41 49 45 35 28 17 12 19 19 13 8 10 10 11 14
16 15 15 16 16 17 17 17 18 19 20 24 44 64 70 69 68 68 64 60 63 61 55 52 52 54 55 53 48 44 46 50 45 36 23 11 13 17 13 9 9 10 11
17 17 18 18 18 18 17 16 16 16 16 16 28 54 53 70 71 73 72 68 69 68 68 64 62 59 56 60 60 57 51 46 49 53 46 33 19 10 12 14 10 9 10
17 17 18 18 18 18 18 17 17 16 16 17 19 26 42 52 67 74 75 74 73 73 72 70 69 70 69 70 66 62 64 60 55 50 52 54 45 34 18 9 9 10 10
16 17 19 20 20 19 19 18 17 17 16 15 15 16 16 20 39 52 55 54 70 81 76 71 69 76 76 72 73 75 70 66 65 62 58 54 57 54 45 32 14 8 9
18 19 20 22 23 23 23 22 20 18 18 17 17 16 15 15 15 16 22 29 25 44 60 68 69 70 80 76 74 75 80 79 76 70 66 65 63 60 58 53 41 21 10
20 21 22 23 24 24 25 26 25 23 20 19 18 17 16 16 15 15 14 17 14 18 46 51 63 65 80 84 82 85 82 76 79 82 77 72 69 71 65 62 59 48 30
24 24 25 26 26 27 27 27 26 24 25 25 24 24 23 22 21 19 18 16 15 15 15 18 25 52 77 70 77 88 88 81 81 76 76 79 75 71 75 71 66 63 53
21 19 21 26 28 27 26 25 23 17 14 15 16 16 18 20 21 22 23 23 23 22 21 19 18 18 23 50 74 72 65 64 63 56 61 79 78 76 76 77 75 72 67
13 11 12 13 16 17 18 18 16 13 10 8 8 8 8 7 7 8 7 7 8 9 11 14 19 21 22 23 25 24 40 64 58 38 38 66 78 86 80 81 81 82 77
8 8 7 7 7 8 10 12 12 11 9 8 8 7 7 7 7 7 7 7 7 7 7 7 7 7 7 7 9 12 16 24 58 92 67 65 74 82 83 80 90 91 85
12 13 13 12 9 9 9 10 11 10 9 8 8 9 8 8 8 9 9 10 10 10 10 10 10 10 10 10 9 8 8 8 11 15 39 77 75 68 76 78 78 88 93
10 10 9 11 13 14 11 10 11 10 9 9 9 10 10 10 10 10 11 12 12 12 12 12 12 12 12 12 12 11 11 10 9 9 9 19 70 76 78 73 79 78 82
20 21 22 22 18 14 17 14 14 13 11 11 11 10 11 11 12 12 13 13 13 12 12 12 13 14 15 16 15 15 14 14 13 11 10 10 11 52 78 80 81 95 82
6 7 8 11 15 25 25 21 18 16 15 13 12 12 12 12 13 14 14 14 14 17 22 24 22 19 19 19 19 21 24 25 24 22 20 16 11 12 36 72 75 85 87
7 8 9 14 23 32 37 38 31 21 18 15 14 14 14 15 15 16 16 19 24 25 20 20 23 23 24 25 25 26 27 27 29 28 27 27 29 21 12 16 44 74 81
8 10 13 22 37 45 47 44 38 30 21 18 16 16 21 21 21 21 23 27 25 18 22 18 19 15 10 12 24 28 27 28 32 32 31 28 23 26 32 23 12 17 44
14 18 22 21 28 38 42 41 34 30 33 41 40 33 25 27 29 30 30 24 19 18 18 19 18 12 9 21 26 28 28 28 26 24 23 30 36 27 28 35 34 20 12
39 48 50 48 46 50 52 56 54 58 57 53 36 26 29 33 34 31 26 16 16 19 18 17 15 10 12 25 26 25 24 25 24 21 20 20 25 40 38 32 34 38 34
23 22 30 44 50 48 50 52 53 53 51 46 23 16 15 16 17 12 10 14 13 20 20 18 14 11 11 17 13 19 20 22 23 26 23 19 22 38 48 46 40 41 43
26 22 21 24 33 38 37 35 32 33 37 33 19 15 13 10 7 7 9 8 10 18 15 12 12 12 11 13 13 14 17 18 18 22 33 32 24 24 34 53 56 53 51
24 25 22 23 25 24 27 29 27 23 19 16 13 12 11 10 6 6 6 6 8 12 11 11 12 13 13 13 12 13 14 18 23 18 22 33 33 37 37 37 39 44 53
11 13 17 17 18 19 16 17 21 21 12 7 6 6 6 7 7 6 6 6 8 10 11 12 13 14 14 14 13 13 13 14 18 18 16 26 35 35 30 30 33 40 44